When you browse on this site, cookies collect data to enhance your experience and personalize the content and advertising you see.
Visit our Privacy Policy to learn more. By continuing to use the site, you agree to this use of cookies and data.
  • In Hungary
  • List of Countries
  • For 7 days
  • Water Temperature
  • Satellite Maps
  • Weather Map
  • News
  • Weather Widgets
  • user-avatar
    Login

    Hourly Weather Denisovka

    Today, 21 November, Wednesday

    Time Temperature Precipitation Wind Pressure Humidity
    00:00 -5°C° 0.4 mm 9 mps 737 mmHg 85%
    01:00 -6°C° 0.4 mm 9 mps 738 mmHg 83%
    02:00 -8°C° 0.2 mm 9 mps 739 mmHg 84%
    03:00 -7°C° 0.2 mm 8 mps 740 mmHg 84%
    04:00 -10°C° 0 mm 8 mps 742 mmHg 83%
    05:00 -11°C° 0.1 mm 7 mps 742 mmHg 84%
    06:00 -11°C° 0.1 mm 6 mps 743 mmHg 85%
    07:00 -11°C° 0.1 mm 5 mps 743 mmHg 85%
    08:00 -11°C° 0 mm 4 mps 744 mmHg 87%
    09:00 -12°C° 0 mm 4 mps 744 mmHg 89%
    10:00 -12°C° 0 mm 3 mps 744 mmHg 92%
    11:00 -12°C° 0.1 mm 4 mps 744 mmHg 90%
    12:00 -12°C° 0.1 mm 4 mps 744 mmHg 89%
    13:00 -12°C° 0.1 mm 4 mps 744 mmHg 87%
    14:00 -14°C° 0 mm 4 mps 744 mmHg 87%
    15:00 -15°C° 0 mm 4 mps 744 mmHg 87%
    16:00 -16°C° 0 mm 4 mps 745 mmHg 88%
    17:00 -16°C° 0 mm 4 mps 744 mmHg 89%
    18:00 -17°C° 0 mm 4 mps 744 mmHg 91%
    19:00 -16°C° 0 mm 3 mps 744 mmHg 92%
    20:00 -16°C° 0 mm 3 mps 744 mmHg 93%
    21:00 -16°C° 0 mm 3 mps 744 mmHg 94%
    22:00 -16°C° 0 mm 3 mps 743 mmHg 95%
    23:00 -16°C° 0 mm 3 mps 743 mmHg 95%

    Tomorrow, 22 November, Thursday

    Time Temperature Precipitation Wind Pressure Humidity
    00:00 -14°C° 0 mm 2 mps 742 mmHg 96%
    01:00 -14°C° 0 mm 2 mps 742 mmHg 96%
    02:00 -14°C° 0.1 mm 2 mps 741 mmHg 96%
    03:00 -13°C° 0.1 mm 2 mps 741 mmHg 96%
    04:00 -13°C° 0.1 mm 2 mps 740 mmHg 96%
    05:00 -13°C° 0.1 mm 3 mps 740 mmHg 96%
    06:00 -13°C° 0.1 mm 3 mps 739 mmHg 96%
    07:00 -13°C° 0.1 mm 3 mps 739 mmHg 96%
    08:00 -13°C° 0.1 mm 3 mps 738 mmHg 96%
    09:00 -12°C° 0.1 mm 2 mps 738 mmHg 97%
    10:00 -12°C° 0.1 mm 2 mps 738 mmHg 97%
    11:00 -12°C° 0.1 mm 2 mps 738 mmHg 97%
    12:00 -12°C° 0.1 mm 2 mps 738 mmHg 97%
    13:00 -12°C° 0.1 mm 2 mps 738 mmHg 97%
    14:00 -12°C° 0.1 mm 2 mps 739 mmHg 97%
    15:00 -12°C° 0.1 mm 2 mps 740 mmHg 96%
    16:00 -12°C° 0.1 mm 2 mps 741 mmHg 96%
    17:00 -13°C° 0.1 mm 2 mps 742 mmHg 96%
    18:00 -13°C° 0.1 mm 2 mps 743 mmHg 96%
    19:00 -15°C° 0.1 mm 3 mps 743 mmHg 96%
    20:00 -16°C° 0 mm 3 mps 744 mmHg 96%
    21:00 -18°C° 0 mm 3 mps 745 mmHg 96%
    22:00 -19°C° 0 mm 3 mps 746 mmHg 96%
    23:00 -19°C° 0 mm 2 mps 746 mmHg 96%

    Day after tomorrow, 23 November, Friday

    Time Temperature Precipitation Wind Pressure Humidity
    00:00 -20°C° 0 mm 2 mps 747 mmHg 96%
    01:00 -19°C° 0 mm 1 mps 747 mmHg 96%
    02:00 -20°C° 0 mm 1 mps 747 mmHg 96%
    03:00 -20°C° 0 mm 1 mps 748 mmHg 96%
    04:00 -20°C° 0 mm 1 mps 748 mmHg 95%
    05:00 -20°C° 0 mm 1 mps 748 mmHg 95%
    06:00 -20°C° 0 mm 0 mps 748 mmHg 95%
    07:00 -20°C° 0 mm 0 mps 748 mmHg 94%
    08:00 -20°C° 0 mm 1 mps 748 mmHg 95%
    09:00 -20°C° 0 mm 1 mps 748 mmHg 95%
    10:00 -20°C° 0 mm 1 mps 748 mmHg 95%
    11:00 -20°C° 0 mm 1 mps 748 mmHg 94%
    12:00 -20°C° 0 mm 1 mps 749 mmHg 94%
    13:00 -20°C° 0 mm 1 mps 749 mmHg 94%
    14:00 -20°C° 0 mm 1 mps 749 mmHg 94%
    15:00 -21°C° 0 mm 1 mps 749 mmHg 93%
    16:00 -21°C° 0 mm 1 mps 749 mmHg 93%
    17:00 -21°C° 0 mm 1 mps 749 mmHg 93%
    18:00 -22°C° 0 mm 1 mps 749 mmHg 93%
    19:00 -22°C° 0 mm 1 mps 750 mmHg 92%
    20:00 -22°C° 0 mm 1 mps 750 mmHg 92%
    21:00 -22°C° 0 mm 1 mps 750 mmHg 92%
    22:00 -22°C° 0 mm 1 mps 750 mmHg 92%
    23:00 -22°C° 0 mm 1 mps 749 mmHg 92%

    24 November, Saturday

    Time Temperature Precipitation Wind Pressure Humidity
    00:00 -25°C° 0 mm 2 mps 749 mmHg 92%
    01:00 -25°C° 0 mm 2 mps 749 mmHg 92%
    02:00 -26°C° 0 mm 2 mps 749 mmHg 92%
    03:00 -26°C° 0 mm 2 mps 749 mmHg 92%
    04:00 -26°C° 0 mm 2 mps 749 mmHg 92%
    05:00 -26°C° 0 mm 2 mps 749 mmHg 92%
    06:00 -26°C° 0 mm 2 mps 749 mmHg 93%
    07:00 -26°C° 0 mm 2 mps 748 mmHg 93%
    08:00 -26°C° 0 mm 2 mps 748 mmHg 93%
    09:00 -27°C° 0 mm 2 mps 748 mmHg 94%
    10:00 -27°C° 0 mm 2 mps 748 mmHg 94%
    11:00 -27°C° 0 mm 2 mps 748 mmHg 95%
    12:00 -26°C° 0 mm 2 mps 748 mmHg 95%
    13:00 -26°C° 0 mm 2 mps 748 mmHg 95%
    14:00 -27°C° 0 mm 2 mps 748 mmHg 95%
    15:00 -27°C° 0 mm 2 mps 748 mmHg 95%
    16:00 -27°C° 0 mm 2 mps 748 mmHg 95%
    17:00 -27°C° 0 mm 2 mps 748 mmHg 95%
    18:00 -27°C° 0 mm 2 mps 748 mmHg 94%
    19:00 -28°C° 0 mm 2 mps 748 mmHg 94%
    20:00 -27°C° 0 mm 2 mps 748 mmHg 94%
    21:00 -27°C° 0 mm 2 mps 748 mmHg 93%
    22:00 -27°C° 0 mm 2 mps 749 mmHg 93%
    23:00 -27°C° 0 mm 2 mps 749 mmHg 94%

    25 November, Sunday

    Time Temperature Precipitation Wind Pressure Humidity
    00:00 -27°C° 0 mm 2 mps 749 mmHg 95%
    01:00 -26°C° 0 mm 2 mps 749 mmHg 95%
    02:00 -26°C° 0 mm 2 mps 749 mmHg 96%
    03:00 -25°C° 0 mm 2 mps 749 mmHg 97%
    04:00 -24°C° 0 mm 2 mps 749 mmHg 98%
    05:00 -23°C° 0 mm 2 mps 749 mmHg 98%
    06:00 -21°C° 0 mm 2 mps 749 mmHg 98%
    07:00 -20°C° 0 mm 2 mps 749 mmHg 98%
    08:00 -20°C° 0 mm 2 mps 750 mmHg 97%
    09:00 -19°C° 0 mm 2 mps 750 mmHg 97%
    10:00 -19°C° 0 mm 3 mps 750 mmHg 97%
    11:00 -19°C° 0 mm 3 mps 750 mmHg 97%
    12:00 -18°C° 0 mm 3 mps 750 mmHg 96%
    13:00 -18°C° 0 mm 3 mps 750 mmHg 96%
    14:00 -17°C° 0 mm 3 mps 751 mmHg 96%
    15:00 -17°C° 0 mm 3 mps 751 mmHg 96%
    16:00 -17°C° 0 mm 3 mps 751 mmHg 96%
    17:00 -17°C° 0.1 mm 3 mps 751 mmHg 96%
    18:00 -17°C° 0.1 mm 3 mps 751 mmHg 96%
    19:00 -17°C° 0.1 mm 3 mps 751 mmHg 96%
    20:00 -17°C° 0.1 mm 3 mps 752 mmHg 96%
    21:00 -16°C° 0.1 mm 2 mps 752 mmHg 96%
    22:00 -16°C° 0.1 mm 2 mps 752 mmHg 97%
    23:00 -17°C° 0 mm 2 mps 752 mmHg 97%

    26 November, Monday

    Time Temperature Precipitation Wind Pressure Humidity
    00:00 -18°C° 0 mm 2 mps 753 mmHg 97%
    01:00 -19°C° 0 mm 2 mps 753 mmHg 97%
    02:00 -20°C° 0 mm 2 mps 753 mmHg 97%
    03:00 -19°C° 0 mm 1 mps 753 mmHg 97%
    04:00 -20°C° 0 mm 1 mps 753 mmHg 97%
    05:00 -21°C° 0 mm 1 mps 753 mmHg 97%
    06:00 -22°C° 0 mm 1 mps 754 mmHg 97%
    07:00 -23°C° 0 mm 1 mps 754 mmHg 97%
    08:00 -24°C° 0 mm 1 mps 754 mmHg 97%
    09:00 -24°C° 0 mm 1 mps 754 mmHg 97%
    10:00 -25°C° 0 mm 1 mps 754 mmHg 97%
    11:00 -25°C° 0 mm 1 mps 755 mmHg 97%
    12:00 -25°C° 0 mm 1 mps 755 mmHg 97%
    13:00 -25°C° 0 mm 1 mps 755 mmHg 98%
    14:00 -25°C° 0 mm 1 mps 755 mmHg 98%
    15:00 -29°C° 0 mm 2 mps 755 mmHg 98%
    16:00 -29°C° 0 mm 2 mps 756 mmHg 98%
    17:00 -29°C° 0 mm 2 mps 756 mmHg 98%
    18:00 -30°C° 0 mm 2 mps 756 mmHg 98%
    19:00 -30°C° 0 mm 2 mps 756 mmHg 99%
    20:00 -30°C° 0 mm 2 mps 756 mmHg 99%
    21:00 -30°C° 0 mm 2 mps 756 mmHg 99%
    22:00 -30°C° 0 mm 2 mps 757 mmHg 99%
    23:00 -30°C° 0 mm 2 mps 757 mmHg 99%
    Show more